Heute – Wetterdaten der letzten 3 Stunden im 5 Min. Intervall

Wetterdaten der letzten 3 Stunden im 5 Min. Intervall
DatumAussentemperaturLuftdruckLuftfeuchtigkeitWindstärke Regen
05.08.21, 10:40 19.3 °C 1009.7 hPa 82 % 0.0 km/h 0.0 mm
05.08.21, 10:35 19.4 °C 1009.8 hPa 85 % 0.0 km/h 0.0 mm
05.08.21, 10:30 19.3 °C 1009.8 hPa 84 % 0.0 km/h 0.0 mm
05.08.21, 10:25 19.2 °C 1009.8 hPa 84 % 0.0 km/h 0.0 mm
05.08.21, 10:20 19.0 °C 1009.9 hPa 85 % 0.0 km/h 0.0 mm
05.08.21, 10:15 18.9 °C 1009.8 hPa 87 % 0.0 km/h 0.0 mm
05.08.21, 10:10 18.6 °C 1009.9 hPa 87 % 0.0 km/h 0.0 mm
05.08.21, 10:05 18.4 °C 1009.8 hPa 88 % 0.0 km/h 0.0 mm
05.08.21, 09:55 18.3 °C 1010.1 hPa 87 % 0.0 km/h 0.0 mm
05.08.21, 09:50 18.2 °C 1010.0 hPa 88 % 0.0 km/h 0.0 mm
05.08.21, 09:45 18.1 °C 1010.1 hPa 88 % 0.0 km/h 0.0 mm
05.08.21, 09:40 17.8 °C 1010.0 hPa 88 % 0.0 km/h 0.0 mm
05.08.21, 09:35 17.7 °C 1010.1 hPa 88 % 0.0 km/h 0.0 mm
05.08.21, 09:30 17.7 °C 1010.1 hPa 89 % 0.0 km/h 0.0 mm
05.08.21, 09:25 17.6 °C 1010.2 hPa 89 % 0.0 km/h 0.0 mm
05.08.21, 09:20 17.4 °C 1010.1 hPa 88 % 0.0 km/h 0.0 mm
05.08.21, 09:15 17.4 °C 1010.1 hPa 88 % 0.0 km/h 0.0 mm
05.08.21, 09:10 17.5 °C 1010.1 hPa 89 % 0.0 km/h 0.0 mm
05.08.21, 09:05 17.3 °C 1010.1 hPa 88 % 0.0 km/h 0.0 mm
05.08.21, 08:55 17.2 °C 1010.2 hPa 89 % 0.0 km/h 0.0 mm
05.08.21, 08:50 17.1 °C 1010.1 hPa 90 % 0.0 km/h 0.0 mm
05.08.21, 08:45 16.8 °C 1010.1 hPa 90 % 0.0 km/h 0.0 mm
05.08.21, 08:40 16.6 °C 1010.1 hPa 91 % 0.0 km/h 0.0 mm
05.08.21, 08:35 16.5 °C 1010.1 hPa 91 % 0.0 km/h 0.0 mm
05.08.21, 08:30 16.3 °C 1010.0 hPa 91 % 0.0 km/h 0.0 mm
05.08.21, 08:25 16.2 °C 1010.0 hPa 92 % 0.0 km/h 0.0 mm
05.08.21, 08:20 16.2 °C 1010.1 hPa 93 % 0.0 km/h 0.0 mm
05.08.21, 08:15 16.1 °C 1010.1 hPa 93 % 0.0 km/h 0.0 mm
05.08.21, 08:10 16.1 °C 1010.1 hPa 93 % 0.0 km/h 0.0 mm
05.08.21, 08:05 16.0 °C 1010.0 hPa 94 % 0.0 km/h 0.0 mm
05.08.21, 07:55 15.8 °C 1010.0 hPa 95 % 0.0 km/h 0.0 mm
05.08.21, 07:50 15.7 °C 1010.1 hPa 95 % 0.0 km/h 0.0 mm
05.08.21, 07:45 15.7 °C 1009.9 hPa 95 % 0.0 km/h 0.0 mm